Location: Barrio Pajares
(40.5500°N, 4.1667°W)
Time: 21:30:45
(UTC+00:00)

Tiangong - Pass Details

Date: 18 April 2024
Orbit: 371 x 374 km, 41.5° (Epoch: 23 May)

Event Time Altitude Azimuth Distance (km) Brightness Sun altitude
Rises 19:39:23 0° 232° (SW) 2,253 2.2 -8.0°
Reaches altitude 10° 19:41:33 10° 223° (SW) 1,397 1.0 -8.4°
Maximum altitude 19:44:27 34° 156° (SSE) 648 -1.4 -8.9°
Enters shadow 19:47:01 12° 91° (E) 1,267 -0.1 -9.3°
